Location: Aufkirchen
(47.9603°N, 11.3653°E)
Time: 14:28:01
(UTC+01:00)

Transit 2A Rocket - Pass Details

Date: 11 December 2020
Orbit: 592 x 910 km, 66.7° (Epoch: 21 January)

Event Time Altitude Azimuth Distance (km) Brightness Sun altitude
Rises 08:02:56 0° 322° (NW) 3,101 7.5 0.3°
Reaches altitude 10° 08:05:24 10° 319° (NW) 2,128 6.7 0.7°
Maximum altitude 08:10:05 59° 241° (WSW) 746 4.9 1.3°
Drops below altitude 10° 08:14:25 10° 162° (SSE) 1,967 8.2 1.9°
Sets 08:16:37 0° 158° (SSE) 2,843 9.2 2.1°
